Home > Weather > Sheffield > Past weeks

Flag for United Kingdom Weather for the Past 2 Weeks in Sheffield, England, United Kingdom

Now
52 °F

Clear.


Feels Like: 49 °F
Forecast: 43 / 65 °F
Wind: 8 mph from South

Location: Manchester Airport

Current Time: May 5, 2016 at 12:02:48 AM

Latest Report: May 4, 2016 at 11:20 PM


Visibility: 10 mi

Pressure: 30.15 "Hg

Humidity: 72%

Dew Point: 43 °F

Location of SheffieldLocation

Historic Weather in Sheffield — Graph

°F

Sheffield Temperature Yesterday

Maximum temperature yesterday: 63 °F (at 4:20 PM)
Minimum temperature yesterday: 41 °F (at 2:50 AM)
Average temperature yesterday: 51 °F

High & Low Weather Summary for the Past Weeks

 TemperatureHumidityPressure
High63 °F (Apr 21, 2:50 PM)94% (May 2, 3:50 AM)30.48 "Hg (May 2, 3:50 AM)
Low30 °F (Apr 27, 2:50 AM)31% (Apr 20, 2:50 PM)29.65 "Hg (Apr 29, 3:20 AM)
Average45 °F71%30.08 "Hg
* Reported Apr 19 7:20 PM — May 4 7:20 PM, Sheffield, Weather by CustomWeather, © 2016

Note: Actual official high and low records may vary slightly from our data, if they occured in-between our weather recording intervals... More about our weather records

Advertising

Sheffield Weather History for the Previous 24 Hours

Scroll right to see more
 ConditionsComfort  
Time TempWeatherWind HumidityBarometerVisibility
7:20 PM
Wed, May 4
59 °FSunny.9 mph48%30.15 "Hg10 mi
6:50 PM61 °FPassing clouds.13 mph45%30.15 "HgN/A
6:20 PM61 °FSunny.13 mph45%30.15 "Hg10 mi
5:50 PM61 °FPassing clouds.13 mph45%30.15 "HgN/A
5:20 PM63 °FPassing clouds.14 mph42%30.15 "HgN/A
4:50 PM63 °FPassing clouds.15 mph42%30.18 "HgN/A
4:20 PM63 °FPassing clouds.14 mph42%30.18 "HgN/A
3:20 PM61 °FPassing clouds.15 mph45%30.18 "HgN/A
2:50 PM61 °FPassing clouds.13 mph48%30.21 "HgN/A
2:20 PM61 °FPassing clouds.12 mph48%30.21 "HgN/A
1:50 PM59 °FPassing clouds.14 mph48%30.24 "HgN/A
1:20 PM59 °FPassing clouds.13 mph48%30.24 "HgN/A
12:20 PM57 °FPassing clouds.14 mph51%30.24 "HgN/A
11:50 AM55 °FPassing clouds.15 mph55%30.24 "HgN/A
11:20 AM55 °FPassing clouds.15 mph55%30.24 "HgN/A
10:50 AM54 °FPassing clouds.14 mph54%30.27 "HgN/A
10:20 AM52 °FPassing clouds.14 mph58%30.27 "HgN/A
9:50 AM52 °FPassing clouds.14 mph62%30.27 "HgN/A
8:50 AM48 °FPassing clouds.12 mph71%30.27 "HgN/A
8:20 AM48 °FPassing clouds.10 mph71%30.27 "HgN/A
7:50 AM46 °FPassing clouds.8 mph76%30.27 "HgN/A
7:20 AM45 °FSunny.8 mph76%30.27 "Hg10 mi
6:50 AM43 °FSunny.8 mph81%30.27 "Hg10 mi
5:50 AM41 °FClear.6 mph81%30.27 "Hg10 mi
5:20 AM41 °FClear.7 mph87%30.27 "Hg10 mi
4:50 AM41 °FClear.8 mph87%30.30 "Hg10 mi
4:20 AM41 °FClear.9 mph87%30.30 "Hg10 mi
3:50 AM41 °FClear.9 mph87%30.30 "Hg10 mi
3:20 AM41 °FClear.8 mph87%30.30 "Hg10 mi
2:50 AM41 °FClear.7 mph81%30.30 "Hg10 mi
2:20 AM43 °FClear.8 mph81%30.30 "Hg10 mi
1:50 AM43 °FClear.8 mph81%30.30 "Hg10 mi
1:20 AM43 °FQuite cool.7 mph81%30.30 "HgN/A
12:50 AM43 °FClear.7 mph81%30.30 "Hg10 mi
Weather by CustomWeather, © 2016

See weather overviewHow to use our weather pages